Torna al catalogo

CZ-4B DEB

AttivoSSO
NORAD 27433·DEBRIS·🇨🇳 China

Lanciato May 15, 2002 da Taiyuan Satellite Launch Center

Loading…

Prossimi Passaggi (prossime 24 ore)

TLE

AggiornatoSource: Space-Track

Epoca: Sep 14, 2026, 14:51 UTC

1 27433U 02024D   26257.61909244  .00000225  00000-0  13996-3 0  9994
2 27433  98.9126 306.2887 0013303 245.0089 114.9702 14.14751525253973

Traccia CZ-4B DEB in tempo reale con AllMySat

Download on the App Store